Location: ???? ?????
(30.0052°N, 31.2891°E)
Time: 13:48:11
(UTC+00:00)

ARIANE 6 FM1 Upper Stage - Visible Passes

Search period start: 19 September 2024 00:00
Search period end: 29 September 2024 00:00
Orbit: 566 x 594 km, 62.0° (Epoch: 19 September)

Date Brightness Start Highest point End Pass type
(mag) Time Alt. Az. Time Alt. Az. Time Alt. Az.
19 Sep 4.4 02:33:52 10° NNW 02:37:55 36° NE 02:41:55 10° ESE visible
19 Sep 3.9 16:31:01 10° SSE 16:34:19 22° ESE 16:37:40 10° ENE visible
19 Sep 4.8 18:09:55 10° WSW 18:13:30 26° NW 18:14:59 21° NNW visible
20 Sep 3.2 02:38:20 10° NNW 02:42:40 64° ENE 02:46:59 10° SE visible
20 Sep 3.1 16:34:56 10° S 16:38:54 40° ESE 16:42:55 10° NE visible
20 Sep 5.6 18:15:44 10° W 18:18:23 16° NW 18:21:03 10° N visible
21 Sep 6.0 01:06:35 10° NNE 01:07:36 11° NE 01:08:36 10° ENE visible
21 Sep 2.7 02:43:01 10° NW 02:47:21 71° WSW 02:51:41 10° SSE visible
21 Sep 2.6 16:39:18 10° SSW 16:43:32 76° ESE 16:47:48 10° NE visible
22 Sep 5.5 01:10:25 13° NNE 01:12:33 17° NE 01:15:28 10° E visible
22 Sep 3.2 02:47:56 10° NW 02:51:59 38° WSW 02:56:00 10° S visible
22 Sep 3.3 16:44:02 10° SW 16:48:12 59° WNW 16:52:26 10° NNE visible
23 Sep 4.7 01:17:40 28° ENE 01:17:40 28° ENE 01:21:08 10° ESE visible
23 Sep 4.0 02:54:10 14° WNW 02:56:32 21° WSW 02:59:51 10° SSW visible
23 Sep 4.5 16:49:06 10° WSW 16:52:57 33° NW 16:56:50 10° N visible
24 Sep 5.0 01:24:54 20° SE 01:24:54 20° SE 01:26:21 10° SE visible
24 Sep 4.7 03:01:22 12° WSW 03:01:22 12° WSW 03:02:41 10° SW visible
24 Sep 5.4 16:54:35 10° W 16:57:45 20° NW 17:00:56 10° N visible
25 Sep 5.8 17:00:50 10° WNW 17:02:37 12° NW 17:04:25 10° NNW visible
